Precipitable_Water
1.30 1.49 1.42 1.40 1.30 1.14 1.01 0.97 1.03 1.13 1.14 1.08 1.05 1.06 1.07 1.36 1.49 1.45 1.28 1.19 1.17 1.13 1.10 1.07 1.04 1.01 1.01 0.96 0.90 0.87 0.85 0.84 0.87 0.87 0.88 0.85 0.72 0.73 0.78 0.72 0.65 0.70 0.81
1.33 1.47 1.44 1.42 1.31 1.19 1.04 0.98 1.04 1.15 1.15 1.02 0.97 1.00 1.06 1.35 1.47 1.37 1.18 1.17 1.13 1.09 1.04 1.01 0.98 0.97 0.96 0.88 0.83 0.95 0.93 0.90 0.93 0.90 0.85 0.80 0.82 0.79 0.73 0.64 0.68 0.73 0.66
1.32 1.40 1.43 1.47 1.34 1.22 1.09 1.04 1.04 1.12 1.15 1.01 0.95 0.97 1.11 1.32 1.36 1.19 1.15 1.12 1.06 1.01 0.96 0.99 0.98 0.93 0.85 0.87 0.84 0.88 0.84 0.84 0.83 0.79 0.77 0.76 0.76 0.71 0.67 0.76 0.69 0.65 0.68
1.38 1.39 1.36 1.45 1.35 1.22 1.11 1.06 1.08 1.09 1.09 0.98 0.94 0.98 1.10 1.20 1.13 1.12 1.06 0.97 0.95 0.95 0.96 0.98 0.93 0.87 0.86 0.85 0.89 0.85 0.81 0.79 0.77 0.71 0.70 0.72 0.65 0.67 0.80 0.73 0.65 0.67 0.67
1.43 1.39 1.36 1.34 1.33 1.26 1.12 1.04 1.07 1.11 1.02 1.07 1.12 1.10 1.08 1.08 1.06 0.98 0.92 0.91 0.95 0.95 0.92 0.97 0.92 0.89 0.86 0.83 0.83 0.79 0.74 0.74 0.69 0.63 0.66 0.66 0.69 0.73 0.66 0.63 0.65 0.68 0.82
1.54 1.48 1.37 1.32 1.27 1.22 1.14 1.06 1.05 1.07 1.02 1.15 1.22 1.19 1.16 1.09 0.99 0.91 0.89 0.93 0.94 0.91 0.94 0.88 0.86 0.88 0.85 0.85 0.79 0.76 0.71 0.69 0.67 0.67 0.68 0.66 0.71 0.63 0.63 0.70 0.64 0.63 0.72
1.54 1.47 1.45 1.37 1.25 1.23 1.14 1.06 1.08 1.07 1.07 1.16 1.21 1.20 1.14 1.02 0.90 0.87 0.87 0.91 0.90 0.89 0.90 0.86 0.83 0.85 0.88 0.86 0.78 0.74 0.69 0.69 0.63 0.67 0.58 0.68 0.67 0.69 0.67 0.68 0.76 0.63 0.64
1.57 1.51 1.48 1.46 1.29 1.22 1.17 1.07 1.12 1.11 1.11 1.16 1.17 1.13 0.99 0.88 0.83 0.80 0.84 0.86 0.87 0.90 0.90 0.83 0.81 0.82 0.82 0.78 0.75 0.71 0.70 0.67 0.66 0.64 0.62 0.66 0.64 0.65 0.67 0.59 0.63 0.66 0.63
1.64 1.60 1.50 1.47 1.38 1.30 1.14 1.09 1.15 1.16 1.14 1.18 1.13 0.98 0.91 0.84 0.79 0.81 0.81 0.85 0.86 0.88 0.86 0.80 0.81 0.85 0.89 0.78 0.76 0.73 0.72 0.69 0.66 0.62 0.64 0.64 0.64 0.67 0.59 0.63 0.83 0.67 0.62
1.60 1.61 1.50 1.48 1.43 1.33 1.18 1.14 1.15 1.15 1.14 1.16 1.10 0.98 0.89 0.83 0.81 0.82 0.80 0.84 0.86 0.86 0.85 0.85 0.87 0.92 0.89 0.78 0.76 0.76 0.73 0.69 0.64 0.66 0.65 0.62 0.70 0.62 0.82 0.68 0.62 0.64 0.58
1.57 1.51 1.54 1.48 1.45 1.32 1.26 1.20 1.18 1.15 1.16 1.14 1.11 0.99 0.91 0.86 0.83 0.84 0.82 0.84 0.85 0.84 0.86 0.91 0.90 0.91 0.87 0.79 0.76 0.74 0.70 0.66 0.63 0.65 0.62 0.67 0.68 0.66 0.59 0.65 0.60 0.59 0.60
1.44 1.50 1.48 1.47 1.43 1.35 1.30 1.25 1.21 1.17 1.16 1.12 1.10 0.98 0.93 0.87 0.84 0.84 0.82 0.80 0.85 0.86 0.93 0.95 0.94 0.92 0.84 0.79 0.76 0.72 0.70 0.67 0.62 0.63 0.60 0.70 0.61 0.61 0.62 0.59 0.57 0.60 0.57
1.41 1.46 1.46 1.43 1.42 1.33 1.28 1.26 1.22 1.16 1.12 1.08 1.08 0.98 0.93 0.87 0.84 0.81 0.76 0.79 0.84 0.90 0.92 0.95 0.93 0.89 0.80 0.80 0.75 0.70 0.69 0.66 0.60 0.64 0.62 0.65 0.66 0.60 0.64 0.60 0.61 0.54 0.55
1.35 1.41 1.45 1.42 1.36 1.34 1.32 1.25 1.20 1.16 1.09 1.07 1.08 0.98 0.93 0.85 0.79 0.73 0.69 0.73 0.79 0.86 0.88 0.93 0.92 0.91 0.85 0.83 0.81 0.74 0.68 0.65 0.62 0.59 0.67 0.61 0.63 0.67 0.61 0.59 0.57 0.54 0.55
1.34 1.41 1.45 1.45 1.39 1.34 1.27 1.24 1.22 1.14 1.09 1.08 1.06 1.03 1.08 0.85 0.72 0.68 0.66 0.72 0.79 0.86 0.90 0.93 0.93 0.91 0.89 0.85 0.81 0.74 0.68 0.65 0.63 0.61 0.66 0.63 0.60 0.62 0.69 0.60 0.60 0.56 0.56
1.41 1.46 1.55 1.50 1.47 1.37 1.27 1.21 1.19 1.18 1.11 1.10 1.08 1.08 1.10 0.97 0.77 0.62 0.66 0.73 0.80 0.86 0.93 0.96 0.92 0.89 0.89 0.88 0.82 0.74 0.70 0.68 0.61 0.58 0.58 0.63 0.62 0.58 0.63 0.62 0.58 0.59 0.52
1.30 1.48 1.49 1.51 1.50 1.39 1.32 1.23 1.23 1.19 1.15 1.10 1.07 1.14 1.14 1.06 0.84 0.62 0.66 0.72 0.82 0.91 0.96 0.97 0.94 0.90 0.88 0.88 0.82 0.78 0.69 0.70 0.61 0.56 0.56 0.55 0.59 0.56 0.57 0.59 0.59 0.55 0.54
1.06 1.24 1.38 1.51 1.49 1.40 1.35 1.28 1.26 1.23 1.19 1.16 1.13 1.18 1.23 1.11 0.90 0.70 0.67 0.72 0.84 0.92 0.98 0.97 0.93 0.87 0.85 0.85 0.82 0.81 0.76 0.71 0.64 0.57 0.56 0.53 0.51 0.52 0.53 0.54 0.59 0.58 0.53
1.01 0.98 1.15 1.34 1.39 1.38 1.37 1.30 1.28 1.27 1.23 1.22 1.19 1.20 1.24 1.15 0.91 0.77 0.70 0.74 0.87 0.93 0.97 0.96 0.94 0.92 0.83 0.83 0.84 0.85 0.81 0.78 0.72 0.66 0.58 0.55 0.53 0.50 0.51 0.50 0.51 0.53 0.53
1.03 0.97 1.04 1.25 1.34 1.35 1.35 1.33 1.30 1.29 1.30 1.30 1.26 1.22 1.20 1.18 1.04 0.89 0.81 0.81 0.87 0.91 0.97 0.94 0.96 0.99 0.94 0.85 0.82 0.82 0.85 0.84 0.82 0.72 0.62 0.57 0.54 0.53 0.53 0.50 0.50 0.49 0.49
0.99 0.98 1.14 1.28 1.39 1.37 1.30 1.25 1.21 1.21 1.31 1.33 1.33 1.29 1.24 1.18 1.12 1.04 0.93 0.87 0.86 0.82 0.92 0.94 0.94 0.96 0.97 0.96 0.81 0.76 0.80 0.83 0.82 0.80 0.72 0.61 0.54 0.53 0.54 0.53 0.52 0.49 0.52
0.95 1.02 1.18 1.30 1.45 1.50 1.45 1.36 1.34 1.36 1.39 1.40 1.39 1.36 1.34 1.28 1.20 1.12 1.05 0.97 0.90 0.82 0.82 0.88 0.92 0.95 0.98 0.96 0.79 0.67 0.57 0.64 0.70 0.77 0.76 0.68 0.58 0.53 0.52 0.52 0.51 0.51 0.50
0.95 1.08 1.18 1.30 1.45 1.57 1.57 1.48 1.45 1.48 1.46 1.42 1.42 1.36 1.39 1.34 1.29 1.28 1.22 1.10 1.00 0.90 0.78 0.83 0.91 0.93 0.93 0.97 0.89 0.69 0.55 0.50 0.60 0.68 0.67 0.65 0.64 0.56 0.53 0.52 0.50 0.50 0.49
0.92 1.08 1.27 1.40 1.47 1.53 1.61 1.52 1.46 1.35 1.28 1.38 1.38 1.38 1.41 1.50 1.37 1.36 1.32 1.28 1.17 1.06 0.88 0.83 0.88 0.91 0.93 0.90 0.95 0.90 0.82 0.69 0.56 0.52 0.65 0.63 0.63 0.62 0.57 0.54 0.53 0.51 0.48
1.09 1.19 1.22 1.29 1.33 1.51 1.62 1.41 1.52 1.43 1.39 1.43 1.43 1.38 1.44 1.51 1.49 1.45 1.40 1.32 1.23 1.16 1.03 0.97 0.90 0.90 0.93 0.95 0.94 0.93 0.94 0.87 0.84 0.75 0.62 0.62 0.65 0.62 0.62 0.60 0.59 0.58 0.56
0.98 1.06 1.16 1.31 1.36 1.42 1.49 1.60 1.57 1.40 1.36 1.37 1.38 1.35 1.42 1.51 1.47 1.40 1.33 1.35 1.32 1.24 1.14 1.06 1.00 0.93 0.89 0.93 0.99 0.97 0.95 0.94 0.85 0.84 0.83 0.80 0.73 0.69 0.63 0.60 0.56 0.59 0.62
Wind_Speed
16 16 16 16 16 15 15 15 15 16 16 16 15 15 14 14 14 14 13 12 11 11 11 11 11 12 12 12 13 14 14 15 16 17 17 18 18 18 19 19 19 20 20
18 18 17 17 16 16 16 15 15 15 15 15 15 15 14 14 13 11 10 10 10 10 11 11 11 12 13 13 13 14 14 15 16 16 17 17 18 18 18 18 19 20 20
19 19 19 18 17 16 16 15 15 15 15 15 14 14 13 12 11 9 9 9 9 9 10 11 11 12 12 13 13 13 13 14 15 15 16 17 17 18 18 18 19 19 20
20 20 19 19 18 17 16 15 15 15 14 14 14 13 12 11 9 8 8 8 9 9 9 10 10 11 12 12 12 12 13 13 14 14 15 16 16 17 17 18 18 19 20
20 21 20 20 19 17 16 15 15 15 14 14 13 13 11 10 8 8 7 8 8 8 9 9 10 11 11 11 11 11 12 12 13 14 15 15 16 17 17 17 17 18 19
19 19 20 20 19 18 17 16 15 15 14 14 13 12 11 9 8 7 7 7 7 7 8 8 9 9 10 9 10 10 11 12 13 13 14 15 15 16 16 17 17 17 18
18 19 20 20 19 19 18 17 16 15 14 14 13 12 10 8 8 7 6 6 6 6 7 7 8 8 8 8 9 10 10 11 12 13 13 14 15 15 16 16 17 17 17
18 19 20 20 19 18 18 17 17 16 15 14 13 11 10 8 8 7 6 6 6 6 6 7 7 8 8 8 9 9 10 10 11 12 13 13 14 14 14 15 15 16 17
19 20 20 20 19 18 18 17 17 16 15 14 13 11 10 9 8 7 6 6 6 6 6 7 8 8 8 8 8 9 10 10 11 11 12 12 13 13 13 14 14 15 15
19 22 21 21 20 19 18 18 17 17 16 15 13 12 10 9 8 7 7 7 6 6 6 7 7 8 7 7 7 8 8 9 9 10 10 11 12 12 12 13 13 13 13
20 22 22 22 21 20 19 18 18 17 16 15 14 12 11 10 9 8 8 8 7 7 7 6 7 7 6 6 6 7 7 8 8 9 9 10 10 11 11 11 11 11 12
22 23 23 23 22 21 20 19 18 17 17 16 14 13 12 11 10 9 9 9 8 8 7 7 6 6 5 6 5 5 6 6 7 8 8 8 9 9 9 10 10 10 10
24 24 24 24 23 22 21 20 19 18 17 16 15 14 13 12 11 10 10 10 10 9 8 6 5 4 5 4 4 4 5 5 6 6 6 7 7 8 8 8 8 8 9
25 25 25 25 24 24 23 21 20 19 18 17 16 15 13 13 12 12 12 12 12 10 8 6 4 4 4 3 3 3 3 4 4 5 5 5 6 6 7 7 7 7 7
24 26 27 27 26 25 24 22 21 20 19 18 17 15 14 13 13 13 13 13 13 11 9 6 4 3 3 3 2 2 3 3 3 4 4 4 4 4 5 5 5 5 6
23 24 27 29 28 27 25 24 22 21 20 19 18 16 15 14 13 14 15 14 13 12 9 6 6 4 3 2 1 1 2 2 3 3 3 3 2 3 3 3 4 3 4
23 23 24 27 29 28 26 25 24 23 21 20 19 17 16 15 14 15 16 15 14 12 10 8 7 6 4 2 0 1 2 2 3 3 3 3 2 0 1 1 1 2 2
23 25 26 28 29 29 28 27 26 24 22 21 20 19 18 16 15 16 17 17 16 14 11 10 9 7 6 4 2 2 2 3 3 4 5 4 4 3 2 1 1 1 1
26 25 28 30 30 30 29 29 27 26 25 23 21 21 20 18 17 17 18 18 17 16 14 12 11 9 8 6 5 4 4 4 5 5 6 6 6 5 4 4 3 3 3
28 28 29 31 32 32 31 30 29 27 26 25 23 23 22 20 19 19 18 18 18 17 16 14 13 11 10 9 7 6 6 7 7 7 8 8 8 8 7 6 6 6 5
30 30 32 33 33 33 32 31 29 28 27 26 25 24 23 22 21 20 19 19 19 18 18 17 15 13 12 11 9 9 9 9 9 9 10 11 11 11 10 9 9 8 8
31 33 34 35 35 34 33 32 29 28 27 26 26 26 25 24 23 22 21 20 20 19 20 19 18 16 14 14 11 10 10 11 11 12 12 13 13 13 13 13 12 11 11
32 33 35 35 37 35 34 33 30 29 27 26 26 25 25 25 26 24 22 21 21 21 21 21 20 20 17 17 15 12 11 12 11 12 14 13 15 15 15 15 15 15 14
33 34 36 36 36 37 37 32 33 30 27 26 26 25 24 25 26 26 24 23 23 23 23 23 22 22 21 20 18 18 15 12 12 12 13 15 15 17 17 17 17 17 17
28 33 36 36 36 36 39 39 33 31 29 27 28 27 25 24 23 25 26 25 25 25 25 25 25 25 24 23 22 20 19 17 15 14 14 13 16 17 19 19 19 19 19
28 28 31 36 35 35 34 35 36 32 31 29 28 27 27 26 24 24 23 24 25 26 27 27 27 27 27 27 26 25 24 20 19 17 16 16 16 17 19 21 21 22 22
Wind_Direction
177 169 163 157 151 147 145 142 138 135 133 131 129 127 125 121 117 113 104 98 90 85 81 79 81 84 85 84 82 77 72 69 66 64 63 63 62 63 64 64 61 61 62
175 173 168 164 157 153 150 147 144 141 138 135 133 131 129 125 121 113 105 98 90 84 80 79 82 87 88 86 83 77 73 71 67 65 65 64 64 65 65 63 64 64 61
178 175 172 168 163 159 154 153 150 147 144 141 139 136 134 130 125 115 107 100 93 86 82 82 87 91 92 87 82 77 73 71 68 66 67 66 65 65 65 67 66 63 63
177 177 175 172 169 165 160 158 156 153 150 147 145 142 138 135 129 120 112 103 97 89 84 85 91 96 95 89 83 76 73 72 69 68 69 67 66 66 68 68 66 65 66
176 178 177 175 173 170 167 164 161 159 156 152 150 146 143 139 133 125 117 109 102 92 86 88 96 99 97 90 81 76 73 74 69 72 71 69 68 68 68 68 68 69 65
175 177 178 177 175 174 171 170 167 164 162 158 156 152 149 144 140 132 124 115 106 96 92 92 98 103 101 90 82 77 76 75 73 74 73 71 70 69 70 71 72 69 67
172 177 179 177 177 177 175 175 172 170 167 165 164 162 158 154 149 143 134 124 112 103 97 97 101 107 105 91 85 80 75 79 76 77 74 73 71 71 73 73 73 70 69
180 178 178 180 180 179 178 179 177 175 173 172 171 170 169 166 160 155 146 135 121 111 105 100 103 111 105 95 89 83 82 80 82 80 77 75 72 73 76 74 75 72 69
187 183 181 183 182 180 183 182 181 180 179 179 177 177 176 176 172 166 159 148 135 123 113 105 106 113 104 97 93 88 84 84 86 82 79 76 74 75 78 78 75 74 70
192 191 189 187 185 185 185 185 184 184 184 184 184 183 181 182 179 176 170 160 147 133 125 113 109 115 105 100 99 92 87 87 89 85 83 79 79 76 77 78 77 74 70
198 196 194 193 192 191 189 189 188 189 189 190 190 190 188 190 186 183 179 169 158 145 137 125 113 115 109 104 102 97 92 90 93 90 85 84 79 79 77 79 78 75 73
199 199 199 197 193 193 195 193 192 193 194 197 197 198 198 195 192 189 184 177 166 153 143 132 120 111 111 108 104 100 96 97 99 96 87 88 81 78 78 78 79 76 74
203 203 203 202 201 199 198 197 197 198 198 201 202 203 199 199 198 195 188 182 172 162 154 144 128 110 119 115 104 104 107 106 106 104 94 91 85 78 78 78 78 76 74
208 208 207 205 204 203 202 201 201 201 203 203 204 204 204 202 201 198 193 186 181 173 165 158 147 123 115 122 116 106 120 121 118 116 109 93 86 82 76 78 76 75 74
209 209 209 208 207 206 205 205 204 204 205 204 205 206 204 202 203 200 194 189 185 183 181 177 181 166 135 118 123 123 127 137 136 138 128 111 92 80 79 76 77 73 71
210 210 211 210 209 208 208 208 207 207 206 206 207 207 205 205 205 201 196 194 193 194 200 212 206 192 176 139 117 149 154 164 162 167 159 151 119 82 75 77 71 72 66
214 214 210 207 209 209 210 210 209 208 208 209 209 208 207 208 206 202 201 201 201 203 209 211 203 201 199 203 218 195 201 193 202 200 199 196 196 144 55 63 69 63 61
217 218 215 213 212 211 212 212 211 210 210 212 212 212 212 211 210 207 207 208 210 211 214 214 211 213 220 226 248 255 236 233 234 232 226 226 232 237 266 287 294 295 315
224 221 218 215 214 213 213 212 213 214 215 216 215 215 215 216 214 212 213 214 216 217 219 218 219 223 228 236 246 258 259 259 252 248 243 240 244 245 257 263 266 274 278
227 226 220 217 215 214 214 214 215 216 217 218 218 218 217 218 217 216 218 220 221 223 224 222 223 230 236 240 247 258 265 268 263 259 253 249 249 250 256 260 265 267 270
229 225 220 216 214 214 214 214 216 217 217 219 219 218 219 219 220 221 224 224 224 228 227 227 228 231 237 241 248 261 268 268 269 266 260 256 254 253 255 259 263 265 267
227 223 220 218 217 216 215 216 216 216 218 219 220 221 222 222 222 224 226 227 228 230 229 231 233 235 240 238 251 257 271 273 270 267 266 261 258 256 255 258 260 264 265
226 223 221 220 220 219 217 216 216 215 218 220 221 221 223 225 226 226 228 230 231 232 233 234 236 238 242 242 248 256 268 271 275 270 267 268 261 258 257 258 260 262 265
226 223 221 222 223 222 220 216 216 218 220 222 223 225 225 228 228 229 231 233 236 238 237 238 240 242 243 245 248 253 264 269 273 280 274 267 267 262 260 259 261 262 264
223 222 222 222 224 225 223 212 216 219 223 224 225 225 226 226 229 230 234 238 240 240 240 241 243 245 245 248 249 252 258 264 270 274 278 279 269 268 262 261 262 264 265
222 222 223 222 225 225 225 221 222 222 223 224 227 227 229 231 232 232 235 239 242 242 243 245 246 248 248 249 251 255 254 258 263 268 273 277 277 275 269 264 264 265 266